EN

Hourly Weather Ladne

Today, 25 July, Sunday

Time Temperature Precipitation Wind Pressure Humidity
00:00 +19°C° 0 mm 3 mps 755 mmHg 72%
01:00 +19°C° 0 mm 3 mps 755 mmHg 70%
02:00 +20°C° 0 mm 3 mps 755 mmHg 69%
03:00 +20°C° 0 mm 3 mps 755 mmHg 69%
04:00 +20°C° 0 mm 3 mps 755 mmHg 68%
05:00 +21°C° 0 mm 3 mps 755 mmHg 68%
06:00 +21°C° 0 mm 4 mps 755 mmHg 68%
07:00 +22°C° 0 mm 4 mps 755 mmHg 67%
08:00 +23°C° 0 mm 4 mps 755 mmHg 63%
09:00 +26°C° 0 mm 4 mps 755 mmHg 59%
10:00 +27°C° 0 mm 4 mps 755 mmHg 54%
11:00 +28°C° 0 mm 4 mps 755 mmHg 50%
12:00 +29°C° 0 mm 3 mps 755 mmHg 47%
13:00 +30°C° 0 mm 3 mps 754 mmHg 43%
14:00 +29°C° 0.1 mm 3 mps 754 mmHg 49%
15:00 +27°C° 0.1 mm 3 mps 755 mmHg 56%
16:00 +26°C° 0.1 mm 3 mps 755 mmHg 63%
17:00 +25°C° 0 mm 2 mps 755 mmHg 66%
18:00 +24°C° 0 mm 2 mps 754 mmHg 70%
19:00 +23°C° 0 mm 1 mps 754 mmHg 74%
20:00 +22°C° 0 mm 1 mps 755 mmHg 75%
21:00 +22°C° 0 mm 1 mps 755 mmHg 76%
22:00 +20°C° 0 mm 2 mps 755 mmHg 78%
23:00 +20°C° 0.1 mm 3 mps 755 mmHg 78%

Tomorrow, 26 July, Monday

Time Temperature Precipitation Wind Pressure Humidity
00:00 +20°C° 0.1 mm 3 mps 755 mmHg 78%
01:00 +21°C° 0.1 mm 4 mps 755 mmHg 79%
02:00 +21°C° 0.1 mm 4 mps 754 mmHg 77%
03:00 +21°C° 0.1 mm 4 mps 754 mmHg 76%
04:00 +21°C° 0.1 mm 5 mps 754 mmHg 75%
05:00 +22°C° 0 mm 5 mps 754 mmHg 71%
06:00 +22°C° 0 mm 5 mps 754 mmHg 67%
07:00 +23°C° 0 mm 5 mps 754 mmHg 64%
08:00 +25°C° 0 mm 5 mps 754 mmHg 61%
09:00 +27°C° 0 mm 5 mps 754 mmHg 58%
10:00 +28°C° 0 mm 5 mps 754 mmHg 54%
11:00 +28°C° 0 mm 5 mps 753 mmHg 55%
12:00 +29°C° 0 mm 5 mps 753 mmHg 55%
13:00 +29°C° 0 mm 5 mps 753 mmHg 55%
14:00 +28°C° 0.3 mm 4 mps 753 mmHg 59%
15:00 +28°C° 0.3 mm 4 mps 753 mmHg 62%
16:00 +27°C° 0.3 mm 3 mps 753 mmHg 66%
17:00 +26°C° 1.9 mm 3 mps 753 mmHg 73%
18:00 +25°C° 1.9 mm 3 mps 753 mmHg 80%
19:00 +22°C° 1.9 mm 3 mps 753 mmHg 88%
20:00 +22°C° 0.2 mm 3 mps 753 mmHg 89%
21:00 +21°C° 0.2 mm 3 mps 753 mmHg 91%
22:00 +21°C° 0.2 mm 3 mps 753 mmHg 93%
23:00 +20°C° 0 mm 3 mps 753 mmHg 93%

Day after tomorrow, 27 July, Tuesday

Time Temperature Precipitation Wind Pressure Humidity
00:00 +20°C° 0 mm 2 mps 753 mmHg 94%
01:00 +19°C° 0 mm 2 mps 753 mmHg 95%
02:00 +19°C° 0 mm 2 mps 753 mmHg 94%
03:00 +19°C° 0 mm 2 mps 753 mmHg 93%
04:00 +20°C° 0 mm 1 mps 753 mmHg 93%
05:00 +20°C° 0 mm 2 mps 753 mmHg 89%
06:00 +21°C° 0 mm 2 mps 753 mmHg 86%
07:00 +23°C° 0 mm 2 mps 753 mmHg 83%
08:00 +24°C° 0.4 mm 3 mps 754 mmHg 79%
09:00 +25°C° 0.4 mm 3 mps 754 mmHg 75%
10:00 +26°C° 0.4 mm 4 mps 754 mmHg 71%
11:00 +26°C° 0.3 mm 4 mps 754 mmHg 73%
12:00 +25°C° 0.3 mm 4 mps 754 mmHg 74%
13:00 +25°C° 0.3 mm 4 mps 754 mmHg 75%
14:00 +26°C° 0.3 mm 4 mps 754 mmHg 69%
15:00 +27°C° 0.3 mm 4 mps 754 mmHg 63%
16:00 +28°C° 0.3 mm 4 mps 754 mmHg 58%
17:00 +27°C° 0 mm 4 mps 754 mmHg 62%
18:00 +26°C° 0 mm 3 mps 754 mmHg 67%
19:00 +25°C° 0 mm 3 mps 754 mmHg 72%
20:00 +24°C° 0.1 mm 3 mps 754 mmHg 73%
21:00 +22°C° 0.1 mm 3 mps 754 mmHg 75%
22:00 +21°C° 0.1 mm 3 mps 755 mmHg 77%
23:00 +21°C° 0 mm 3 mps 755 mmHg 78%

28 July, Wednesday

Time Temperature Precipitation Wind Pressure Humidity
00:00 +21°C° 0 mm 3 mps 755 mmHg 79%
01:00 +20°C° 0 mm 2 mps 755 mmHg 80%
02:00 +20°C° 0.1 mm 2 mps 755 mmHg 83%
03:00 +19°C° 0.1 mm 2 mps 755 mmHg 86%
04:00 +18°C° 0.1 mm 2 mps 755 mmHg 89%
05:00 +20°C° 0 mm 3 mps 755 mmHg 84%
06:00 +21°C° 0 mm 3 mps 755 mmHg 79%
07:00 +24°C° 0 mm 3 mps 755 mmHg 74%
08:00 +25°C° 0 mm 3 mps 755 mmHg 66%
09:00 +27°C° 0 mm 3 mps 755 mmHg 59%
10:00 +28°C° 0 mm 3 mps 755 mmHg 51%
11:00 +29°C° 0 mm 3 mps 754 mmHg 47%
12:00 +30°C° 0 mm 3 mps 754 mmHg 44%
13:00 +31°C° 0 mm 3 mps 754 mmHg 40%
14:00 +31°C° 0 mm 3 mps 754 mmHg 39%
15:00 +31°C° 0 mm 3 mps 754 mmHg 39%
16:00 +31°C° 0 mm 2 mps 754 mmHg 39%
17:00 +28°C° 0.1 mm 4 mps 754 mmHg 49%
18:00 +26°C° 0.1 mm 5 mps 754 mmHg 60%
19:00 +22°C° 0.1 mm 7 mps 754 mmHg 70%
20:00 +21°C° 0.1 mm 5 mps 754 mmHg 77%
21:00 +20°C° 0.1 mm 4 mps 755 mmHg 83%
22:00 +18°C° 0.1 mm 2 mps 755 mmHg 90%
23:00 +18°C° 0 mm 2 mps 755 mmHg 91%

29 July, Thursday

Time Temperature Precipitation Wind Pressure Humidity
00:00 +18°C° 0 mm 2 mps 755 mmHg 92%
01:00 +18°C° 0 mm 2 mps 755 mmHg 93%
02:00 +17°C° 0 mm 2 mps 755 mmHg 93%
03:00 +17°C° 0 mm 2 mps 755 mmHg 94%
04:00 +17°C° 0 mm 2 mps 755 mmHg 94%
05:00 +18°C° 0 mm 2 mps 755 mmHg 89%
06:00 +19°C° 0 mm 2 mps 756 mmHg 84%
07:00 +20°C° 0 mm 2 mps 756 mmHg 80%
08:00 +23°C° 0 mm 2 mps 756 mmHg 72%
09:00 +25°C° 0 mm 3 mps 756 mmHg 65%
10:00 +26°C° 0 mm 3 mps 756 mmHg 57%
11:00 +27°C° 0 mm 3 mps 755 mmHg 53%
12:00 +28°C° 0 mm 3 mps 755 mmHg 48%
13:00 +29°C° 0 mm 3 mps 755 mmHg 43%
14:00 +29°C° 0 mm 3 mps 755 mmHg 44%
15:00 +30°C° 0 mm 3 mps 754 mmHg 45%
16:00 +30°C° 0 mm 3 mps 754 mmHg 45%
17:00 +29°C° 0 mm 3 mps 754 mmHg 50%
18:00 +28°C° 0 mm 2 mps 754 mmHg 55%
19:00 +27°C° 0 mm 2 mps 753 mmHg 60%
20:00 +25°C° 0.5 mm 2 mps 754 mmHg 68%
21:00 +24°C° 0.5 mm 2 mps 754 mmHg 76%
22:00 +21°C° 0.5 mm 2 mps 754 mmHg 85%
23:00 +21°C° 0.6 mm 2 mps 754 mmHg 87%

30 July, Friday

Time Temperature Precipitation Wind Pressure Humidity
00:00 +21°C° 0.6 mm 2 mps 754 mmHg 90%
01:00 +21°C° 0.6 mm 2 mps 754 mmHg 92%
02:00 +20°C° 0.3 mm 2 mps 754 mmHg 93%
03:00 +20°C° 0.3 mm 2 mps 754 mmHg 94%
04:00 +20°C° 0.3 mm 2 mps 754 mmHg 95%
05:00 +21°C° 0 mm 2 mps 754 mmHg 90%
06:00 +21°C° 0 mm 2 mps 754 mmHg 85%
07:00 +23°C° 0 mm 2 mps 755 mmHg 80%
08:00 +24°C° 0 mm 1 mps 755 mmHg 76%
09:00 +24°C° 0 mm 1 mps 755 mmHg 71%
10:00 +25°C° 0 mm 1 mps 755 mmHg 67%
11:00 +26°C° 0.1 mm 1 mps 754 mmHg 63%
12:00 +27°C° 0.1 mm 2 mps 754 mmHg 59%
13:00 +28°C° 0.1 mm 2 mps 754 mmHg 55%
14:00 +28°C° 0.1 mm 2 mps 753 mmHg 56%
15:00 +28°C° 0.1 mm 2 mps 753 mmHg 56%
16:00 +27°C° 0.1 mm 2 mps 753 mmHg 57%
17:00 +26°C° 0.1 mm 2 mps 752 mmHg 61%
18:00 +26°C° 0.1 mm 2 mps 752 mmHg 64%
19:00 +25°C° 0.1 mm 2 mps 752 mmHg 67%
20:00 +24°C° 0 mm 2 mps 752 mmHg 65%
21:00 +22°C° 0 mm 3 mps 753 mmHg 64%
22:00 +21°C° 0 mm 4 mps 753 mmHg 62%
23:00 +20°C° 0 mm 3 mps 753 mmHg 61%
Show more